• în Republica Moldova
  • Lista ţărilor
  • Pe 7 zile
  • Temperatura apei
  • Hartă satelitară
  • Meteo pe hartă
  • Widget-uri
  • user-avatar
    Intrare

    Meteo pe oră la Saurimo

    Astăzi, 21 Mai, Luni

    Timp Temperatura Precipitaţii Vânt Presiune Umiditate
    00:00 +22°C° 0 mm 1 m/s 670 mmHg 61%
    01:00 +21°C° 0 mm 1 m/s 670 mmHg 62%
    02:00 +20°C° 0 mm 1 m/s 670 mmHg 62%
    03:00 +19°C° 0 mm 2 m/s 670 mmHg 62%
    04:00 +18°C° 0 mm 2 m/s 670 mmHg 62%
    05:00 +19°C° 0 mm 2 m/s 670 mmHg 60%
    06:00 +19°C° 0 mm 2 m/s 671 mmHg 58%
    07:00 +20°C° 0 mm 3 m/s 671 mmHg 53%
    08:00 +24°C° 0 mm 3 m/s 672 mmHg 46%
    09:00 +27°C° 0 mm 3 m/s 672 mmHg 39%
    10:00 +29°C° 0 mm 3 m/s 673 mmHg 31%
    11:00 +30°C° 0 mm 3 m/s 672 mmHg 30%
    12:00 +31°C° 0 mm 3 m/s 672 mmHg 28%
    13:00 +33°C° 0 mm 3 m/s 671 mmHg 26%
    14:00 +33°C° 0 mm 3 m/s 671 mmHg 27%
    15:00 +31°C° 0 mm 3 m/s 671 mmHg 28%
    16:00 +31°C° 0 mm 3 m/s 670 mmHg 29%
    17:00 +28°C° 0 mm 2 m/s 670 mmHg 34%
    18:00 +26°C° 0 mm 2 m/s 670 mmHg 39%
    19:00 +23°C° 0 mm 1 m/s 670 mmHg 44%
    20:00 +23°C° 0 mm 1 m/s 670 mmHg 45%
    21:00 +21°C° 0 mm 2 m/s 670 mmHg 45%
    22:00 +20°C° 0 mm 2 m/s 671 mmHg 45%
    23:00 +20°C° 0 mm 2 m/s 671 mmHg 45%

    Mâine, 22 Mai, Marţi

    Timp Temperatura Precipitaţii Vânt Presiune Umiditate
    00:00 +19°C° 0 mm 2 m/s 670 mmHg 44%
    01:00 +19°C° 0 mm 2 m/s 670 mmHg 44%
    02:00 +18°C° 0 mm 2 m/s 670 mmHg 44%
    03:00 +18°C° 0 mm 2 m/s 670 mmHg 44%
    04:00 +17°C° 0 mm 2 m/s 670 mmHg 45%
    05:00 +18°C° 0 mm 2 m/s 670 mmHg 45%
    06:00 +18°C° 0 mm 2 m/s 671 mmHg 46%
    07:00 +19°C° 0 mm 3 m/s 671 mmHg 46%
    08:00 +22°C° 0 mm 3 m/s 672 mmHg 40%
    09:00 +26°C° 0 mm 3 m/s 673 mmHg 34%
    10:00 +29°C° 0 mm 4 m/s 673 mmHg 28%
    11:00 +30°C° 0 mm 4 m/s 673 mmHg 26%
    12:00 +31°C° 0 mm 3 m/s 673 mmHg 24%
    13:00 +33°C° 0 mm 3 m/s 672 mmHg 23%
    14:00 +31°C° 0 mm 3 m/s 672 mmHg 24%
    15:00 +31°C° 0 mm 2 m/s 671 mmHg 25%
    16:00 +30°C° 0 mm 2 m/s 671 mmHg 26%
    17:00 +28°C° 0 mm 2 m/s 671 mmHg 31%
    18:00 +26°C° 0 mm 2 m/s 671 mmHg 36%
    19:00 +23°C° 0 mm 1 m/s 671 mmHg 40%
    20:00 +22°C° 0 mm 1 m/s 671 mmHg 42%
    21:00 +21°C° 0 mm 2 m/s 672 mmHg 43%
    22:00 +20°C° 0 mm 2 m/s 672 mmHg 45%
    23:00 +20°C° 0 mm 2 m/s 672 mmHg 45%

    Poimâine, 23 Mai, Miercuri

    Timp Temperatura Precipitaţii Vânt Presiune Umiditate
    00:00 +19°C° 0 mm 2 m/s 671 mmHg 45%
    01:00 +19°C° 0 mm 2 m/s 671 mmHg 45%
    02:00 +18°C° 0 mm 2 m/s 671 mmHg 46%
    03:00 +18°C° 0 mm 2 m/s 671 mmHg 46%
    04:00 +18°C° 0 mm 2 m/s 671 mmHg 46%
    05:00 +18°C° 0 mm 3 m/s 671 mmHg 46%
    06:00 +19°C° 0 mm 3 m/s 672 mmHg 47%
    07:00 +19°C° 0 mm 3 m/s 672 mmHg 47%
    08:00 +22°C° 0 mm 3 m/s 673 mmHg 42%
    09:00 +26°C° 0 mm 4 m/s 674 mmHg 37%
    10:00 +29°C° 0 mm 4 m/s 674 mmHg 31%
    11:00 +30°C° 0 mm 3 m/s 674 mmHg 29%
    12:00 +31°C° 0 mm 3 m/s 673 mmHg 27%
    13:00 +32°C° 0 mm 2 m/s 673 mmHg 25%
    14:00 +32°C° 0 mm 2 m/s 672 mmHg 26%
    15:00 +31°C° 0 mm 2 m/s 672 mmHg 27%
    16:00 +31°C° 0 mm 2 m/s 671 mmHg 28%
    17:00 +28°C° 0 mm 2 m/s 671 mmHg 33%
    18:00 +26°C° 0 mm 1 m/s 671 mmHg 38%
    19:00 +24°C° 0 mm 1 m/s 671 mmHg 43%
    20:00 +23°C° 0 mm 1 m/s 671 mmHg 44%
    21:00 +23°C° 0 mm 1 m/s 672 mmHg 45%
    22:00 +22°C° 0 mm 1 m/s 672 mmHg 46%
    23:00 +22°C° 0 mm 1 m/s 672 mmHg 46%

    24 Mai, Joi

    Timp Temperatura Precipitaţii Vânt Presiune Umiditate
    00:00 +22°C° 0 mm 1 m/s 672 mmHg 45%
    01:00 +23°C° 0 mm 1 m/s 672 mmHg 44%
    02:00 +21°C° 0 mm 2 m/s 671 mmHg 46%
    03:00 +20°C° 0 mm 2 m/s 671 mmHg 49%
    04:00 +19°C° 0 mm 2 m/s 670 mmHg 52%
    05:00 +19°C° 0 mm 2 m/s 671 mmHg 52%
    06:00 +19°C° 0 mm 2 m/s 671 mmHg 52%
    07:00 +20°C° 0 mm 2 m/s 672 mmHg 52%
    08:00 +24°C° 0 mm 3 m/s 673 mmHg 46%
    09:00 +27°C° 0 mm 3 m/s 673 mmHg 41%
    10:00 +29°C° 0 mm 3 m/s 674 mmHg 35%
    11:00 +30°C° 0 mm 3 m/s 673 mmHg 34%
    12:00 +31°C° 0 mm 2 m/s 673 mmHg 32%
    13:00 +32°C° 0 mm 2 m/s 672 mmHg 30%
    14:00 +32°C° 0 mm 2 m/s 671 mmHg 32%
    15:00 +31°C° 0 mm 1 m/s 671 mmHg 35%
    16:00 +30°C° 0 mm 1 m/s 671 mmHg 37%
    17:00 +28°C° 0 mm 1 m/s 671 mmHg 41%
    18:00 +26°C° 0 mm 1 m/s 671 mmHg 45%
    19:00 +25°C° 0 mm 1 m/s 671 mmHg 49%
    20:00 +24°C° 0 mm 1 m/s 671 mmHg 52%
    21:00 +23°C° 0 mm 1 m/s 671 mmHg 54%
    22:00 +22°C° 0 mm 1 m/s 671 mmHg 57%
    23:00 +22°C° 0 mm 1 m/s 671 mmHg 58%

    25 Mai, Vineri

    Timp Temperatura Precipitaţii Vânt Presiune Umiditate
    00:00 +21°C° 0 mm 1 m/s 671 mmHg 59%
    01:00 +21°C° 0 mm 1 m/s 670 mmHg 60%
    02:00 +21°C° 0 mm 1 m/s 670 mmHg 61%
    03:00 +19°C° 0 mm 2 m/s 670 mmHg 62%
    04:00 +19°C° 0 mm 2 m/s 670 mmHg 63%
    05:00 +19°C° 0 mm 2 m/s 670 mmHg 62%
    06:00 +20°C° 0 mm 3 m/s 671 mmHg 60%
    07:00 +21°C° 0 mm 3 m/s 672 mmHg 59%
    08:00 +24°C° 0 mm 3 m/s 672 mmHg 53%
    09:00 +27°C° 0 mm 3 m/s 673 mmHg 46%
    10:00 +29°C° 0 mm 4 m/s 673 mmHg 40%
    11:00 +31°C° 0 mm 3 m/s 672 mmHg 35%
    12:00 +32°C° 0 mm 2 m/s 672 mmHg 30%
    13:00 +34°C° 0 mm 2 m/s 671 mmHg 26%
    14:00 +32°C° 0 mm 2 m/s 671 mmHg 29%
    15:00 +30°C° 0 mm 1 m/s 670 mmHg 33%
    16:00 +29°C° 0 mm 1 m/s 670 mmHg 37%
    17:00 +28°C° 0 mm 1 m/s 670 mmHg 39%
    18:00 +26°C° 0 mm 1 m/s 671 mmHg 42%
    19:00 +25°C° 0 mm 1 m/s 671 mmHg 45%
    20:00 +24°C° 0 mm 1 m/s 671 mmHg 48%
    21:00 +23°C° 0 mm 1 m/s 671 mmHg 51%
    22:00 +22°C° 0 mm 1 m/s 671 mmHg 54%
    23:00 +20°C° 0 mm 2 m/s 670 mmHg 55%

    26 Mai, Sâmbătă

    Timp Temperatura Precipitaţii Vânt Presiune Umiditate
    00:00 +20°C° 0 mm 2 m/s 670 mmHg 56%
    01:00 +19°C° 0 mm 2 m/s 670 mmHg 57%
    02:00 +19°C° 0 mm 2 m/s 670 mmHg 58%
    03:00 +19°C° 0 mm 2 m/s 670 mmHg 59%
    04:00 +18°C° 0 mm 2 m/s 670 mmHg 60%
    05:00 +19°C° 0 mm 2 m/s 670 mmHg 60%
    06:00 +20°C° 0 mm 2 m/s 671 mmHg 59%
    07:00 +20°C° 0 mm 3 m/s 672 mmHg 59%
    08:00 +24°C° 0 mm 3 m/s 672 mmHg 52%
    09:00 +27°C° 0 mm 3 m/s 673 mmHg 46%
    10:00 +29°C° 0 mm 3 m/s 673 mmHg 39%
    11:00 +30°C° 0 mm 3 m/s 672 mmHg 37%
    12:00 +30°C° 0 mm 2 m/s 672 mmHg 34%
    13:00 +30°C° 0 mm 2 m/s 671 mmHg 31%
    14:00 +30°C° 0 mm 2 m/s 671 mmHg 33%
    15:00 +29°C° 0 mm 1 m/s 670 mmHg 35%
    16:00 +29°C° 0 mm 1 m/s 670 mmHg 37%
    17:00 +27°C° 0 mm 1 m/s 670 mmHg 41%
    18:00 +25°C° 0 mm 1 m/s 671 mmHg 44%
    19:00 +24°C° 0 mm 1 m/s 671 mmHg 47%
    20:00 +23°C° 0 mm 1 m/s 671 mmHg 49%
    21:00 +23°C° 0 mm 1 m/s 671 mmHg 50%
    22:00 +22°C° 0 mm 1 m/s 671 mmHg 52%
    23:00 +22°C° 0 mm 1 m/s 671 mmHg 53%
    Arată mai mult